Location: Sungai Liu
(2.3667°N, 113.8667°E)
Time: 13:10:34
(UTC+00:00)

ARIANE 5 R/B - Pass Details

Date: 20 May 2022
Orbit: 244 x 32175 km, 4.6° (Epoch: 04 July)

Event Time Altitude Azimuth Distance (km) Brightness Sun altitude
Exits shadow 18:24:50 25° 83° (E) 2,684 4.9 -52.3°
Drops below altitude 10° 18:32:33 10° 86° (E) 6,227 7.0 -50.7°
Sets 18:46:00 0° 88° (E) 11,352 8.5 -48.0°
